When you browse on this site, cookies collect data to enhance your experience and personalize the content and advertising you see.
Visit our Privacy Policy to learn more. By continuing to use the site, you agree to this use of cookies and data.
  • In Spain
  • List of Countries
  • For 7 days
  • Water Temperature
  • Satellite Maps
  • Weather Map
  • Weather Widgets
  • user-avatar
    Login

    Hourly Weather Kruhle

    Today, 25 March, Monday

    Time Temperature Precipitation Wind Pressure Humidity
    00:00 +1°C° 0 mm 3 mps 741 mmHg 87%
    01:00 0°C° 0 mm 3 mps 741 mmHg 88%
    02:00 +1°C° 0 mm 2 mps 741 mmHg 91%
    03:00 +1°C° 0 mm 2 mps 741 mmHg 90%
    04:00 +1°C° 0 mm 2 mps 741 mmHg 90%
    05:00 -1°C° 0 mm 2 mps 741 mmHg 90%
    06:00 +1°C° 0 mm 2 mps 742 mmHg 84%
    07:00 +3°C° 0 mm 2 mps 742 mmHg 78%
    08:00 +4°C° 0 mm 2 mps 742 mmHg 72%
    09:00 +4°C° 0 mm 3 mps 742 mmHg 63%
    10:00 +7°C° 0 mm 3 mps 742 mmHg 55%
    11:00 +8°C° 0 mm 3 mps 742 mmHg 47%
    12:00 +8°C° 0 mm 3 mps 742 mmHg 44%
    13:00 +9°C° 0 mm 3 mps 742 mmHg 41%
    14:00 +9°C° 0 mm 2 mps 742 mmHg 39%
    15:00 +10°C° 0 mm 1 mps 742 mmHg 41%
    16:00 +9°C° 0 mm 1 mps 741 mmHg 44%
    17:00 +8°C° 0 mm 0 mps 741 mmHg 46%
    18:00 +8°C° 0 mm 1 mps 741 mmHg 50%
    19:00 +8°C° 0 mm 1 mps 741 mmHg 53%
    20:00 +6°C° 0 mm 2 mps 741 mmHg 56%
    21:00 +5°C° 0 mm 2 mps 741 mmHg 60%
    22:00 +4°C° 0 mm 3 mps 741 mmHg 64%
    23:00 +4°C° 0 mm 3 mps 741 mmHg 68%

    Tomorrow, 26 March, Tuesday

    Time Temperature Precipitation Wind Pressure Humidity
    00:00 +3°C° 0.3 mm 4 mps 740 mmHg 73%
    01:00 +3°C° 0.3 mm 4 mps 740 mmHg 78%
    02:00 +2°C° 0.3 mm 5 mps 739 mmHg 84%
    03:00 +3°C° 0.9 mm 5 mps 739 mmHg 86%
    04:00 +3°C° 0.9 mm 6 mps 738 mmHg 88%
    05:00 +3°C° 0.9 mm 7 mps 738 mmHg 91%
    06:00 +3°C° 0.2 mm 6 mps 738 mmHg 89%
    07:00 +4°C° 0.2 mm 6 mps 738 mmHg 88%
    08:00 +4°C° 0.2 mm 6 mps 738 mmHg 86%
    09:00 +5°C° 0 mm 6 mps 739 mmHg 79%
    10:00 +6°C° 0 mm 5 mps 739 mmHg 72%
    11:00 +7°C° 0 mm 5 mps 740 mmHg 64%
    12:00 +8°C° 0 mm 4 mps 740 mmHg 59%
    13:00 +8°C° 0 mm 4 mps 740 mmHg 53%
    14:00 +10°C° 0 mm 3 mps 740 mmHg 47%
    15:00 +9°C° 0 mm 3 mps 740 mmHg 50%
    16:00 +9°C° 0 mm 2 mps 740 mmHg 54%
    17:00 +9°C° 0 mm 2 mps 740 mmHg 57%
    18:00 +8°C° 0.1 mm 2 mps 740 mmHg 62%
    19:00 +7°C° 0.1 mm 2 mps 740 mmHg 67%
    20:00 +7°C° 0.1 mm 1 mps 740 mmHg 72%
    21:00 +6°C° 0.1 mm 2 mps 740 mmHg 75%
    22:00 +5°C° 0.1 mm 2 mps 740 mmHg 79%
    23:00 +4°C° 0.1 mm 3 mps 740 mmHg 82%

    Day after tomorrow, 27 March, Wednesday

    Time Temperature Precipitation Wind Pressure Humidity
    00:00 +3°C° 0 mm 3 mps 740 mmHg 84%
    01:00 +2°C° 0 mm 3 mps 740 mmHg 86%
    02:00 +1°C° 0 mm 3 mps 741 mmHg 88%
    03:00 0°C° 0 mm 3 mps 741 mmHg 88%
    04:00 +1°C° 0 mm 2 mps 741 mmHg 89%
    05:00 -1°C° 0 mm 2 mps 741 mmHg 89%
    06:00 +1°C° 0 mm 2 mps 741 mmHg 81%
    07:00 +2°C° 0 mm 2 mps 742 mmHg 73%
    08:00 +3°C° 0 mm 2 mps 742 mmHg 64%
    09:00 +4°C° 0 mm 2 mps 742 mmHg 57%
    10:00 +5°C° 0 mm 2 mps 742 mmHg 50%
    11:00 +5°C° 0 mm 2 mps 743 mmHg 43%
    12:00 +6°C° 0 mm 2 mps 743 mmHg 41%
    13:00 +5°C° 0 mm 3 mps 742 mmHg 39%
    14:00 +7°C° 0 mm 3 mps 742 mmHg 37%
    15:00 +5°C° 0 mm 3 mps 743 mmHg 40%
    16:00 +5°C° 0 mm 3 mps 743 mmHg 44%
    17:00 +5°C° 0 mm 3 mps 743 mmHg 47%
    18:00 +4°C° 0 mm 3 mps 743 mmHg 52%
    19:00 +3°C° 0 mm 4 mps 744 mmHg 58%
    20:00 +1°C° 0 mm 4 mps 745 mmHg 63%
    21:00 0°C° 0 mm 4 mps 745 mmHg 68%
    22:00 0°C° 0 mm 3 mps 745 mmHg 72%
    23:00 -1°C° 0 mm 3 mps 746 mmHg 77%

    28 March, Thursday

    Time Temperature Precipitation Wind Pressure Humidity
    00:00 -1°C° 0 mm 3 mps 746 mmHg 77%
    01:00 -1°C° 0 mm 2 mps 746 mmHg 77%
    02:00 -2°C° 0 mm 2 mps 747 mmHg 78%
    03:00 -2°C° 0 mm 2 mps 747 mmHg 76%
    04:00 -2°C° 0 mm 2 mps 747 mmHg 75%
    05:00 -2°C° 0 mm 2 mps 748 mmHg 73%
    06:00 -1°C° 0 mm 2 mps 748 mmHg 69%
    07:00 0°C° 0 mm 3 mps 749 mmHg 64%
    08:00 +1°C° 0 mm 3 mps 749 mmHg 59%
    09:00 +1°C° 0 mm 4 mps 749 mmHg 56%
    10:00 +1°C° 0 mm 4 mps 749 mmHg 53%
    11:00 +2°C° 0 mm 5 mps 750 mmHg 50%
    12:00 +2°C° 0 mm 5 mps 750 mmHg 49%
    13:00 +2°C° 0 mm 5 mps 750 mmHg 48%
    14:00 +2°C° 0 mm 6 mps 750 mmHg 47%
    15:00 +2°C° 0 mm 6 mps 750 mmHg 51%
    16:00 +1°C° 0 mm 5 mps 750 mmHg 54%
    17:00 0°C° 0 mm 5 mps 750 mmHg 57%
    18:00 0°C° 0 mm 4 mps 751 mmHg 62%
    19:00 -1°C° 0 mm 4 mps 751 mmHg 67%
    20:00 -1°C° 0 mm 3 mps 752 mmHg 72%
    21:00 -1°C° 0 mm 3 mps 752 mmHg 74%
    22:00 -1°C° 0 mm 3 mps 752 mmHg 76%
    23:00 -1°C° 0 mm 3 mps 752 mmHg 79%

    29 March, Friday

    Time Temperature Precipitation Wind Pressure Humidity
    00:00 -2°C° 0 mm 3 mps 752 mmHg 79%
    01:00 -2°C° 0 mm 3 mps 752 mmHg 79%
    02:00 -2°C° 0 mm 3 mps 752 mmHg 79%
    03:00 -2°C° 0 mm 3 mps 752 mmHg 79%
    04:00 -2°C° 0 mm 3 mps 751 mmHg 80%
    05:00 -2°C° 0 mm 3 mps 751 mmHg 81%
    06:00 -2°C° 0 mm 4 mps 751 mmHg 73%
    07:00 -1°C° 0 mm 5 mps 750 mmHg 65%
    08:00 0°C° 0 mm 5 mps 750 mmHg 57%
    09:00 +1°C° 0 mm 6 mps 749 mmHg 54%
    10:00 +2°C° 0 mm 6 mps 749 mmHg 51%
    11:00 +2°C° 0 mm 7 mps 748 mmHg 48%
    12:00 +2°C° 0.5 mm 7 mps 747 mmHg 56%
    13:00 0°C° 0.5 mm 7 mps 746 mmHg 64%
    14:00 0°C° 0.5 mm 7 mps 745 mmHg 72%
    15:00 +1°C° 0.5 mm 6 mps 745 mmHg 76%
    16:00 +1°C° 0.5 mm 5 mps 745 mmHg 80%
    17:00 +1°C° 0.5 mm 4 mps 745 mmHg 85%
    18:00 0°C° 0.1 mm 4 mps 745 mmHg 85%
    19:00 0°C° 0.1 mm 4 mps 745 mmHg 86%
    20:00 -1°C° 0.1 mm 4 mps 746 mmHg 87%
    21:00 -1°C° 0 mm 4 mps 746 mmHg 88%
    22:00 -1°C° 0 mm 3 mps 746 mmHg 89%
    23:00 -2°C° 0 mm 3 mps 747 mmHg 90%

    30 March, Saturday

    Time Temperature Precipitation Wind Pressure Humidity
    00:00 -2°C° 0 mm 3 mps 747 mmHg 91%
    01:00 -2°C° 0 mm 3 mps 747 mmHg 91%
    02:00 -2°C° 0 mm 3 mps 748 mmHg 91%
    03:00 -2°C° 0 mm 3 mps 748 mmHg 92%
    04:00 -3°C° 0 mm 2 mps 748 mmHg 92%
    05:00 -3°C° 0 mm 2 mps 749 mmHg 92%
    06:00 -2°C° 0 mm 2 mps 749 mmHg 88%
    07:00 -1°C° 0 mm 2 mps 749 mmHg 84%
    08:00 +1°C° 0 mm 2 mps 749 mmHg 81%
    09:00 +4°C° 0 mm 1 mps 750 mmHg 76%
    10:00 +5°C° 0 mm 1 mps 750 mmHg 71%
    11:00 +6°C° 0 mm 1 mps 750 mmHg 67%
    12:00 +7°C° 0 mm 1 mps 750 mmHg 64%
    13:00 +7°C° 0 mm 1 mps 750 mmHg 61%
    14:00 +8°C° 0 mm 1 mps 749 mmHg 58%
    15:00 +8°C° 0 mm 1 mps 749 mmHg 60%
    16:00 +7°C° 0 mm 1 mps 749 mmHg 63%
    17:00 +7°C° 0 mm 1 mps 749 mmHg 65%
    18:00 +6°C° 0 mm 1 mps 749 mmHg 68%
    19:00 +4°C° 0 mm 2 mps 749 mmHg 71%
    20:00 +3°C° 0 mm 2 mps 749 mmHg 73%
    21:00 +3°C° 0 mm 2 mps 749 mmHg 77%
    22:00 +1°C° 0 mm 3 mps 749 mmHg 81%
    23:00 +1°C° 0 mm 3 mps 749 mmHg 85%
    Show more